Theta_e
285 285 286 288 290 290 290 290 292 292 291 290 289 289 289 289 289 290 291 291 292 292 292 293 293 293 292 291 291 291 291 291 291 292 293 294 293 292 292 292 292 292 292 292 292 292 292 292 292 293 293 294 293 293 292 292 291 291 291 291 292 291 290 290 291 291 290 290 291
285 285 287 290 291 291 290 290 290 291 291 289 289 289 288 289 290 290 291 290 292 292 292 293 292 292 291 291 291 291 291 291 291 291 292 292 292 292 292 292 292 292 292 292 292 292 293 292 292 293 293 293 293 293 292 293 292 291 291 290 291 291 291 291 291 291 290 290 291
285 285 285 286 285 286 287 287 288 288 287 287 288 289 289 289 290 291 291 292 291 291 292 293 292 291 291 291 291 291 291 291 291 291 292 292 292 292 292 292 292 292 292 293 292 292 292 292 292 293 294 294 293 293 293 292 292 292 291 290 292 292 292 293 292 292 292 292 291
284 284 284 284 284 284 285 287 287 287 287 289 288 288 288 289 291 291 291 291 290 290 291 292 292 292 292 292 291 291 291 292 292 292 292 292 292 291 291 291 291 291 291 292 291 291 291 291 292 293 293 292 292 292 292 293 292 292 292 292 292 293 293 293 293 293 293 293 292
284 284 285 285 285 285 285 286 286 287 288 288 289 289 290 290 291 291 291 291 292 292 292 291 292 292 293 292 291 291 291 291 293 293 292 291 291 291 291 291 291 291 291 291 291 291 291 290 291 292 292 292 292 292 292 292 292 292 292 293 293 293 293 293 293 293 293 293 293
285 285 284 285 285 285 285 286 286 286 287 288 288 288 289 291 291 291 291 291 291 291 291 291 293 293 293 292 291 291 291 290 291 291 291 290 290 290 290 290 290 290 291 291 290 290 290 290 291 292 292 292 292 292 292 291 292 292 292 292 293 293 293 293 293 293 293 293 292
285 285 285 285 285 285 286 286 286 287 287 287 287 288 289 290 290 290 290 291 291 291 291 293 293 293 292 291 291 290 290 291 290 290 290 290 290 290 290 290 290 290 290 290 290 290 290 290 291 292 292 293 293 292 292 291 291 291 291 291 292 293 293 292 292 293 293 292 292
284 285 285 286 286 286 286 286 286 287 287 288 289 288 288 289 289 289 289 290 291 291 292 293 291 290 290 290 290 290 290 290 290 290 290 290 290 289 289 289 289 289 289 289 289 289 289 290 291 291 292 292 292 292 292 291 290 291 291 291 292 292 292 292 292 292 292 292 291
284 285 285 285 285 286 286 286 286 286 287 288 288 288 288 289 289 289 290 290 291 292 292 292 291 290 290 289 289 290 290 290 290 290 290 290 289 289 289 289 289 289 290 290 290 289 289 290 291 291 292 292 292 292 292 291 290 290 290 291 291 292 292 292 292 292 292 291 291
285 285 285 286 286 286 286 286 286 286 287 287 288 288 289 291 291 291 290 291 292 292 291 290 290 290 290 289 289 290 290 290 290 290 290 290 290 290 290 290 290 290 290 290 291 290 290 290 291 291 291 292 291 291 291 291 291 290 291 292 292 292 292 292 291 291 291 292 291
285 285 286 286 286 287 287 287 287 288 288 288 288 288 289 290 290 290 290 291 291 290 290 290 290 290 290 290 290 290 290 290 290 290 290 290 290 290 290 290 290 290 290 290 291 291 291 291 291 290 290 291 291 291 291 291 290 290 290 291 291 291 291 291 291 292 292 292 291
285 285 286 286 286 287 287 286 287 288 288 289 289 289 289 289 289 290 290 290 290 290 290 290 290 290 290 290 290 290 290 290 290 290 290 289 290 289 290 290 290 290 290 290 290 291 291 291 291 290 290 290 291 291 291 291 290 290 290 291 291 291 291 291 291 292 292 292 291
285 286 286 287 287 286 286 287 288 288 289 289 289 289 289 290 290 290 290 290 290 290 291 291 291 290 290 290 290 290 290 290 290 290 290 290 290 290 290 290 290 290 290 290 290 291 291 291 290 290 290 290 291 291 291 291 291 290 290 290 290 291 291 291 291 291 292 291 291
285 286 286 287 286 287 287 288 288 289 289 289 289 289 290 290 291 291 291 290 290 290 291 290 291 291 291 290 290 290 290 290 290 290 289 290 290 290 290 290 290 290 290 291 291 290 290 290 290 290 290 290 290 291 291 291 291 291 291 291 291 291 291 291 291 291 291 290 290
285 286 286 286 286 287 288 288 289 289 289 289 289 290 290 290 291 291 291 290 290 290 290 290 290 290 291 290 290 290 290 290 290 290 289 290 290 290 290 290 290 290 290 291 291 291 291 290 291 291 290 291 291 291 291 291 291 291 291 291 291 291 291 291 291 291 291 290 291
286 286 286 286 286 287 288 288 289 289 289 289 290 290 290 290 291 291 291 290 290 290 290 290 290 290 290 290 290 290 290 290 290 290 289 289 290 290 290 290 290 290 290 291 291 291 291 291 291 291 291 291 291 291 292 292 292 292 292 292 292 292 292 292 291 291 291 291 291
286 286 286 286 286 287 287 288 289 289 289 289 289 289 290 290 290 290 291 291 290 290 289 289 289 289 290 290 290 290 290 290 290 290 290 290 290 290 290 290 290 290 291 291 291 291 291 291 292 292 292 292 292 292 292 292 292 292 292 292 291 291 292 292 292 292 292 292 292
285 286 286 286 286 286 287 287 288 288 288 289 289 289 289 289 289 290 290 290 290 289 289 289 289 289 290 289 290 290 290 290 290 290 290 290 290 290 290 290 291 291 291 291 291 291 292 292 292 293 293 293 293 293 293 293 293 292 292 292 292 292 292 292 292 292 292 292 292
285 286 286 286 286 287 287 288 288 288 288 288 289 289 289 289 289 289 289 289 289 289 289 289 289 289 289 289 289 290 291 290 290 290 290 290 290 290 290 290 291 291 291 292 292 292 292 293 293 293 294 294 294 294 294 294 294 294 293 293 293 293 293 292 292 292 292 292 292
286 286 286 286 287 287 287 287 288 288 288 288 288 288 288 288 288 288 288 288 289 289 289 289 289 289 289 289 289 290 290 291 290 290 290 290 290 290 291 291 291 292 292 293 293 293 293 294 294 294 294 294 295 294 294 294 294 294 294 294 294 294 294 293 293 293 292 292 293
285 286 286 286 286 286 287 287 287 287 287 288 288 288 288 288 288 288 288 288 289 289 289 289 289 289 289 289 289 289 290 291 290 290 290 291 291 291 292 292 293 293 293 293 294 294 294 294 294 294 295 295 294 294 294 294 294 294 293 294 294 294 294 294 293 293 293 293 293
286 286 286 286 286 286 287 287 287 287 287 287 287 287 287 288 288 288 288 289 289 289 289 289 289 289 289 289 289 289 290 291 290 290 291 291 292 292 293 293 294 294 294 294 294 294 294 294 294 294 294 294 294 294 294 294 294 293 293 293 293 293 293 293 293 293 293 293 293
286 286 286 286 286 287 288 287 287 287 287 287 287 287 287 287 288 288 288 289 289 289 289 289 289 289 289 289 290 290 290 290 290 291 291 291 292 293 294 294 294 294 294 294 294 294 294 294 295 295 295 295 295 295 295 295 295 294 294 294 293 293 293 293 293 293 293 294 294
286 286 286 287 286 286 286 287 287 287 287 287 287 287 287 288 288 288 288 288 289 289 289 289 290 290 290 290 290 290 290 290 290 291 292 292 293 293 294 294 294 294 294 294 295 296 296 296 296 296 297 297 297 297 297 296 296 296 296 295 294 294 294 294 294 293 293 294 294
285 285 286 286 286 286 286 286 286 286 287 287 287 287 287 287 288 288 288 288 289 289 289 289 290 290 290 291 291 291 291 291 292 292 292 293 293 293 294 294 294 294 295 296 298 300 301 300 300 299 299 299 299 299 299 299 298 298 297 297 296 296 295 295 295 294 294 294 294
285 285 285 285 285 286 286 286 286 286 286 287 287 287 287 287 288 288 288 288 289 289 289 290 290 291 292 292 292 292 292 292 293 293 293 293 293 293 293 294 294 295 295 298 300 302 303 303 303 302 301 301 300 300 300 300 300 300 299 299 298 297 297 296 296 296 296 296 296
284 284 285 285 285 286 286 286 286 286 286 287 287 287 287 288 288 288 289 289 289 289 290 290 290 292 293 292 292 292 292 293 293 293 293 293 293 293 293 294 294 295 296 299 301 303 304 305 305 305 304 302 302 301 301 301 301 301 301 300 300 299 298 297 297 297 297 297 297
284 284 285 285 285 285 286 286 286 286 286 287 287 287 288 288 288 289 289 289 289 290 290 291 291 292 292 292 292 292 292 292 293 293 293 293 293 294 294 294 295 296 298 301 303 304 305 306 306 307 306 305 303 302 302 302 302 301 301 301 301 300 300 299 299 299 298 298 298
284 284 285 285 285 285 286 286 286 286 286 287 287 288 288 289 289 290 290 290 290 290 290 291 292 292 292 292 292 292 292 292 293 293 294 293 294 294 294 295 295 297 299 302 303 304 305 306 306 307 307 307 305 304 303 302 302 302 302 302 301 301 301 300 300 299 299 299 298
284 285 285 285 285 285 286 286 286 286 287 287 288 289 289 290 290 290 290 290 290 290 291 291 292 291 291 292 292 292 292 293 293 293 294 293 294 294 295 295 296 297 299 302 303 304 305 306 306 307 307 307 306 305 304 303 303 302 302 302 301 301 301 301 300 300 299 299 299
284 285 285 285 285 285 286 286 286 287 287 288 288 289 290 290 290 290 290 289 290 291 291 291 291 291 291 292 292 292 293 293 293 294 293 293 294 295 295 295 295 297 299 302 303 304 305 306 306 307 308 308 307 306 304 303 303 302 301 301 301 301 301 301 300 300 300 300 299
284 285 285 285 285 286 286 286 287 287 287 288 289 290 290 290 290 289 290 290 290 290 290 290 291 291 291 292 292 293 293 293 293 293 294 294 294 294 295 295 295 297 299 302 303 304 305 306 306 307 308 309 308 306 305 304 303 302 301 301 301 302 302 301 300 300 300 300 299
285 285 285 285 285 286 286 286 287 287 288 289 290 290 289 289 289 289 289 290 290 290 290 291 291 291 292 292 292 293 293 293 293 294 294 295 295 295 295 295 296 297 300 302 303 304 305 306 306 307 308 309 307 306 305 304 303 303 302 301 302 301 301 300 300 300 299 298 298
285 285 285 285 286 286 286 287 288 288 289 289 289 289 288 288 288 288 289 290 290 291 291 292 292 292 293 293 293 293 293 293 293 294 294 294 294 295 295 295 295 298 300 303 304 304 305 306 307 307 308 308 306 305 304 303 303 302 302 302 301 300 300 299 299 298 298 297 297
285 285 285 285 286 286 287 287 288 289 289 289 288 288 288 287 288 288 289 290 291 292 292 292 293 293 293 293 293 293 293 293 293 293 294 294 295 295 295 295 295 298 301 303 304 304 305 306 307 307 308 307 305 304 303 302 302 301 300 300 300 299 298 298 298 297 297 297 297
285 285 285 285 286 287 287 288 288 289 288 288 287 287 287 287 288 289 290 292 292 292 292 292 293 293 292 292 292 293 293 293 293 294 294 295 295 295 295 295 295 297 300 302 304 305 305 306 307 307 307 306 304 303 302 301 300 300 299 299 298 297 296 296 296 296 296 297 297
285 285 285 286 286 287 288 288 288 288 287 287 287 287 287 287 288 289 290 292 292 292 292 292 292 292 292 292 292 293 293 294 294 294 295 295 295 295 294 294 294 297 299 302 304 305 305 306 306 307 306 304 303 302 301 300 300 300 299 298 297 296 296 296 296 295 296 296 297
285 286 286 286 287 288 288 288 287 287 287 286 287 287 288 288 289 290 291 293 292 292 291 291 291 291 292 292 293 293 294 294 295 295 295 295 295 295 295 295 295 297 299 302 303 304 305 306 306 306 305 303 303 302 301 301 300 299 298 297 297 296 296 296 296 296 296 296 299
286 286 287 287 287 287 287 287 287 287 287 287 287 288 288 289 290 291 292 293 292 291 291 291 291 292 292 293 294 294 294 294 295 295 295 294 295 296 296 296 296 297 299 302 303 304 305 306 306 306 306 304 303 302 302 301 300 299 298 297 297 296 296 296 296 296 297 297 300
287 287 287 288 288 287 287 287 287 287 287 288 288 288 289 290 291 292 292 292 292 291 291 291 292 292 293 294 294 294 294 294 294 294 295 295 296 297 298 297 297 297 299 301 303 304 305 305 306 306 305 304 303 302 302 301 300 299 297 297 296 296 296 296 297 297 297 297 299
287 287 288 288 288 287 287 287 287 287 288 288 289 289 290 291 291 291 292 291 291 291 292 292 292 293 293 295 294 294 293 293 294 294 295 295 296 297 298 297 297 296 297 300 302 304 304 305 305 305 305 304 303 302 301 301 300 299 297 297 296 296 296 296 296 297 297 297 297
Wind_Speed
3 3 3 3 4 4 4 4 4 4 4 4 4 4 4 4 5 5 5 4 5 5 5 5 5 6 6 7 7 8 8 8 8 9 9 9 9 9 9 9 9 9 9 10 9 9 8 8 7 6 6 6 6 6 5 5 6 6 6 6 6 6 6 7 7 8 8 8 7
4 4 4 4 5 4 4 4 4 4 4 4 4 4 4 4 5 5 5 5 5 5 5 5 5 6 7 7 7 8 8 8 8 9 9 9 9 9 9 9 9 9 9 10 9 8 8 8 7 6 6 5 6 6 6 6 5 6 7 8 6 5 5 7 7 7 8 7 6
4 4 4 4 4 4 4 4 4 5 5 4 4 4 4 4 4 5 5 5 5 5 5 5 6 6 6 8 7 7 7 8 8 8 8 8 9 9 9 9 9 9 10 10 9 8 8 8 7 7 6 6 6 6 6 6 6 6 7 7 6 5 5 6 7 7 6 6 6
4 4 4 4 5 5 4 4 5 5 6 5 5 4 4 4 5 5 5 6 6 5 5 6 6 6 7 8 8 8 8 8 9 9 9 9 9 9 9 9 9 10 10 9 9 9 9 8 7 6 6 7 7 7 7 6 6 6 6 6 5 6 6 6 6 6 5 6 6
4 4 4 4 5 6 5 5 5 6 6 5 5 5 4 4 5 5 5 6 6 6 6 6 7 7 7 8 9 9 9 9 10 10 9 10 10 10 9 9 10 10 9 9 9 9 9 8 6 6 6 6 6 6 6 7 7 6 6 5 5 5 6 6 6 5 5 5 5
4 4 5 4 5 5 5 5 6 6 6 5 5 5 6 5 5 6 6 7 7 7 8 8 8 8 8 8 9 9 9 9 9 9 9 10 10 10 10 10 10 9 9 9 9 9 9 8 6 6 6 6 6 7 7 7 7 7 6 6 6 5 5 6 5 5 6 6 7
5 5 5 5 6 6 6 6 6 5 5 4 6 7 8 8 7 8 8 8 7 7 7 8 8 8 9 9 9 9 9 9 9 9 10 10 10 10 10 10 10 9 9 9 9 8 8 7 6 6 7 7 7 7 7 7 7 7 7 7 6 6 5 6 5 5 6 8 9
5 5 5 6 6 6 6 6 5 5 5 5 6 8 9 9 9 9 9 8 7 7 7 7 7 8 9 9 9 10 10 10 10 10 9 9 10 10 10 9 9 9 9 9 8 8 8 7 6 7 7 7 7 7 7 8 8 8 8 8 7 6 6 6 5 6 7 9 10
4 5 5 6 6 6 6 7 6 6 6 7 8 9 9 9 9 9 9 8 8 7 7 7 8 9 10 10 10 10 10 10 10 10 10 9 10 10 10 9 10 10 9 9 9 9 8 7 7 7 7 7 7 8 8 9 9 9 9 9 8 7 7 7 7 7 8 9 10
5 5 5 5 6 6 6 6 6 6 6 8 9 9 9 10 9 9 8 7 8 8 8 7 8 9 10 10 10 10 10 10 10 10 11 10 11 11 11 10 11 11 11 10 9 9 9 8 8 8 8 8 9 10 10 10 11 11 10 9 9 9 9 8 8 9 9 9 10
5 5 5 5 6 7 6 6 6 6 7 7 8 9 9 9 9 8 8 7 8 9 9 8 9 10 10 10 10 10 10 10 10 10 11 11 12 12 12 11 12 12 11 11 10 9 9 8 9 10 10 9 10 10 11 11 11 11 11 10 11 11 11 11 10 10 9 10 11
6 6 5 6 6 6 6 6 6 6 7 8 8 8 8 8 8 8 8 8 9 9 10 9 10 10 10 10 10 11 11 11 11 11 12 12 12 12 12 12 12 12 12 12 10 9 9 9 10 11 11 11 10 9 10 11 11 12 12 12 12 12 12 12 12 11 10 10 11
5 5 6 6 6 6 6 6 6 6 7 8 8 8 8 8 8 8 8 9 10 10 10 10 10 10 10 10 11 11 11 11 12 12 12 12 13 13 13 12 12 12 12 11 10 10 9 10 11 12 12 12 11 10 11 11 12 12 12 13 13 13 13 13 12 11 11 11 11
5 5 6 6 6 6 6 7 6 6 7 8 8 8 8 8 8 8 9 9 10 10 11 11 10 10 10 11 11 11 12 12 12 12 13 13 13 13 12 12 12 12 11 11 10 10 11 11 11 12 13 13 13 12 12 12 12 12 12 13 13 13 13 13 12 12 11 12 12
5 6 6 6 6 6 6 7 7 7 7 8 8 8 8 8 9 9 9 10 11 11 11 11 11 11 11 12 12 12 12 12 12 13 13 13 13 12 12 12 12 12 12 11 11 11 11 12 12 13 13 13 14 14 13 13 13 13 13 13 14 14 13 13 12 12 11 11 12
5 6 6 5 6 6 7 7 6 7 7 8 8 8 8 8 9 9 10 11 11 11 11 11 11 11 11 12 12 12 12 12 12 12 13 13 13 13 13 13 13 13 12 13 12 12 12 12 12 13 13 14 14 14 14 14 14 14 14 14 14 14 14 14 13 12 12 12 12
6 6 6 6 7 7 7 7 7 7 8 8 9 9 9 9 9 10 11 12 11 11 12 12 11 11 11 12 11 11 12 12 12 12 12 13 13 13 13 13 13 13 13 13 13 14 14 13 13 13 13 14 14 14 14 14 13 13 13 13 13 14 14 14 14 13 13 13 13
6 6 6 6 7 8 8 8 8 8 8 9 9 9 9 9 10 11 11 11 11 12 13 13 12 12 12 12 11 11 11 12 12 12 12 13 13 14 14 14 14 14 14 14 14 14 15 15 14 14 14 14 14 14 14 14 13 12 13 13 13 13 13 14 14 13 13 14 14
7 7 7 7 8 8 8 9 9 9 9 9 10 10 10 11 11 11 11 11 11 12 12 13 13 12 12 12 12 12 11 12 13 13 13 14 14 14 14 14 14 14 14 14 15 15 15 15 15 15 15 15 15 15 15 14 14 13 13 12 12 13 13 13 13 13 13 13 14
7 7 7 7 8 8 8 9 9 9 9 10 10 11 11 12 11 12 12 12 12 12 12 13 13 13 13 13 13 13 12 11 12 13 14 14 14 14 14 15 15 15 15 15 15 15 15 16 16 16 16 16 16 16 16 15 15 14 14 13 13 13 13 14 14 14 13 13 14
7 7 7 7 7 8 8 8 9 9 10 10 11 12 12 12 12 12 12 12 12 12 12 12 13 13 13 13 13 13 13 12 12 13 14 14 14 15 15 15 15 15 15 14 15 15 16 16 16 16 16 17 16 16 15 15 14 14 14 14 14 14 15 15 15 15 15 15 14
6 6 6 7 7 8 8 9 9 10 10 11 11 11 12 12 12 12 12 12 12 12 12 12 13 13 13 13 14 14 13 13 13 13 13 13 14 14 15 15 15 15 15 15 15 15 15 16 16 16 16 16 16 16 15 15 15 14 15 15 15 16 17 17 17 16 16 16 16
7 6 6 7 7 8 9 10 10 10 11 11 11 11 12 12 12 12 12 11 12 12 12 12 12 13 13 14 14 14 14 14 14 13 13 13 14 15 15 15 15 15 15 14 14 14 14 15 15 15 15 15 15 15 16 16 16 15 15 16 16 17 17 17 17 16 16 16 16
7 7 7 7 7 8 9 10 10 11 11 11 12 12 12 12 12 12 12 12 12 12 12 12 12 13 13 14 14 14 14 14 14 14 14 14 14 15 15 14 14 15 14 13 14 15 15 14 13 13 13 13 13 14 14 15 15 15 16 16 17 17 17 16 17 16 16 16 15
7 7 8 8 8 9 10 10 11 11 11 12 12 12 12 12 12 12 12 12 12 13 13 13 13 13 13 13 13 13 13 13 14 14 14 15 14 14 14 14 14 13 13 13 18 21 22 20 17 14 13 13 13 13 14 14 15 15 15 15 16 16 16 16 16 17 17 17 16
7 8 8 8 9 10 10 11 11 11 12 12 12 12 12 12 12 12 12 13 13 13 13 13 13 13 13 12 12 12 12 13 13 14 15 15 16 15 15 14 13 12 12 15 20 24 26 27 25 22 18 15 14 14 13 13 14 14 14 14 14 14 14 15 15 16 17 16 17
7 8 9 9 9 10 11 11 11 11 12 12 12 12 12 12 11 12 12 13 13 13 13 12 12 13 13 12 13 13 14 13 14 15 16 16 17 17 16 14 13 12 13 18 23 26 28 28 29 27 24 18 16 14 13 12 13 13 13 13 13 13 13 14 15 15 16 16 16
7 8 9 10 10 11 11 11 11 11 12 12 12 12 12 12 12 12 12 12 12 12 12 12 11 11 11 10 12 14 15 15 15 15 15 16 16 17 16 15 13 14 16 21 25 28 29 29 29 29 27 23 18 15 14 14 13 12 12 11 11 12 12 12 13 13 14 15 15
8 9 9 10 11 11 11 11 12 12 12 12 12 12 12 13 12 13 13 13 13 13 12 11 11 10 10 11 13 14 15 15 15 15 15 16 16 16 16 15 15 16 20 25 27 28 29 29 29 29 29 27 20 14 12 12 11 11 10 9 9 10 11 11 11 12 12 13 13
8 9 10 10 11 11 12 12 12 12 12 12 12 13 13 13 13 13 14 14 14 14 13 12 12 12 13 14 14 14 14 14 14 14 15 16 17 17 16 16 16 17 20 25 27 28 29 29 29 29 30 30 24 18 14 12 12 11 10 9 9 10 11 11 12 13 12 11 11
8 9 10 11 11 12 12 12 12 12 12 12 12 13 14 14 15 15 15 14 14 15 14 14 14 15 15 14 14 14 14 14 14 15 15 16 17 17 17 17 17 18 20 25 27 28 28 29 29 30 30 31 25 19 14 13 13 12 10 8 9 10 11 11 12 12 12 10 9
8 9 10 11 12 12 12 12 12 12 12 12 13 14 14 15 15 15 15 15 15 15 15 15 15 15 14 14 13 14 14 15 15 16 16 16 16 17 17 17 17 18 20 24 27 28 28 29 29 30 31 31 25 19 15 13 12 11 9 9 10 11 11 10 10 9 9 8 7
9 9 10 11 12 12 12 12 12 12 12 13 13 14 15 15 15 14 15 15 15 15 15 15 15 15 14 14 14 14 15 16 16 17 17 17 17 17 17 17 16 17 20 25 27 28 29 29 30 30 31 31 24 18 13 11 9 8 7 8 9 9 9 9 7 6 6 6 6
9 10 10 11 12 12 12 12 12 12 13 14 14 14 14 14 15 15 15 15 14 14 14 14 13 13 13 14 14 15 16 16 17 17 17 17 17 17 17 15 14 16 21 26 28 29 29 29 30 30 30 30 21 15 11 9 8 7 7 7 7 6 6 6 6 6 6 6 6
9 10 11 12 12 12 12 13 13 13 14 15 15 14 14 14 15 15 15 16 15 15 14 13 13 13 13 14 15 16 17 18 18 18 18 17 17 17 17 16 16 18 23 27 28 29 29 29 29 29 29 26 17 12 9 8 7 7 7 7 6 6 6 7 7 7 7 7 7
9 10 11 12 12 12 13 13 14 14 15 15 15 15 14 14 14 14 15 16 15 14 13 13 13 14 14 15 16 16 17 17 18 18 17 17 17 17 17 17 17 20 24 27 28 28 29 28 29 29 27 21 14 10 9 7 7 7 7 7 7 7 7 7 7 7 7 7 7
9 10 11 12 12 13 13 14 15 15 15 15 15 15 15 14 14 14 14 14 13 13 13 13 14 15 16 16 16 16 16 16 16 17 17 18 18 18 18 18 18 19 22 25 27 28 28 28 28 27 24 17 12 10 9 7 6 6 7 7 7 7 7 7 7 7 7 7 7
10 10 11 12 12 13 14 14 15 15 15 15 15 15 14 14 14 13 13 13 13 13 14 14 15 16 16 17 17 16 16 16 16 17 17 18 18 18 18 18 18 18 20 23 25 27 27 27 28 26 23 16 12 10 9 7 6 6 7 7 7 7 7 6 5 5 6 7 10
10 10 11 11 12 13 14 15 15 15 15 15 15 15 14 14 13 13 13 13 13 13 14 15 16 16 16 17 16 16 16 16 17 17 17 18 18 19 19 19 17 17 19 22 25 26 27 27 27 26 24 17 13 10 9 8 8 7 7 7 6 6 6 5 5 5 6 8 11
10 10 10 11 12 13 14 15 15 15 15 15 15 15 14 14 13 13 14 13 13 14 14 15 16 16 16 17 16 16 16 16 16 17 17 18 19 20 21 19 17 17 18 21 24 25 26 26 26 26 23 16 12 9 8 8 8 8 7 7 6 6 5 5 5 5 6 7 9
10 10 11 12 13 14 14 15 15 15 14 14 14 14 14 14 13 13 13 13 14 14 14 13 15 16 16 17 15 15 16 17 17 17 18 19 19 20 19 18 17 17 17 19 21 23 24 25 25 26 24 17 12 9 8 7 8 8 8 7 6 6 5 5 5 5 6 6 6
Wind_Direction
270 266 264 263 265 265 266 269 271 273 273 273 277 280 282 284 285 285 284 282 282 283 284 285 284 286 287 286 285 284 284 283 281 280 279 280 279 279 279 280 280 280 280 280 280 280 279 277 274 273 272 270 267 264 260 255 251 249 247 244 247 246 244 243 245 245 244 243 245
281 276 272 273 274 274 276 279 279 280 278 275 276 278 279 280 281 283 283 280 278 279 282 285 285 284 285 284 282 281 281 281 280 279 280 280 279 278 278 280 279 279 279 280 280 280 279 277 275 274 274 271 267 265 261 255 250 250 249 245 247 247 247 246 246 245 243 243 242
284 283 281 278 279 279 281 283 283 282 281 280 278 276 276 276 277 280 280 279 278 279 281 284 285 284 284 283 281 279 277 279 279 281 281 281 280 280 279 280 280 279 279 280 279 279 278 277 276 276 275 274 270 268 265 261 254 253 252 248 248 249 250 251 249 246 244 245 241
281 279 277 274 271 270 271 278 283 283 283 282 281 278 275 273 274 275 277 279 280 280 280 282 285 286 286 284 282 280 279 279 282 283 283 283 283 281 280 279 279 279 278 277 277 276 276 275 275 274 274 272 270 268 266 265 259 256 255 253 253 252 252 255 253 251 250 251 246
278 269 264 264 267 267 268 273 278 281 282 284 286 285 283 279 278 279 281 284 285 283 283 282 284 285 284 283 282 282 282 282 284 285 285 284 283 281 280 277 276 275 276 275 273 273 273 272 273 272 271 269 267 264 262 261 259 258 258 258 256 254 254 255 255 254 253 254 251
276 271 268 265 267 270 272 273 273 275 278 285 286 287 286 286 287 287 287 287 286 285 284 283 283 284 285 285 285 286 287 286 285 284 284 283 282 281 279 277 274 273 273 273 272 271 271 270 272 272 270 269 267 264 262 258 259 259 258 259 256 255 255 254 255 254 253 252 252
268 272 275 274 274 276 278 278 278 278 280 283 284 283 283 285 286 286 285 285 286 286 285 284 285 287 289 290 290 290 289 288 286 283 282 281 281 280 278 276 275 273 271 271 270 270 269 266 270 272 273 273 273 270 264 259 258 258 259 259 257 256 255 254 254 254 254 253 252
261 265 268 273 275 277 279 280 283 285 286 286 284 283 282 283 284 284 284 285 285 285 286 288 287 288 288 289 289 289 289 288 287 285 283 282 282 280 279 277 276 274 271 269 268 268 267 266 268 271 273 274 273 272 268 261 259 258 259 260 261 259 256 255 255 254 253 253 252
267 268 271 275 277 278 278 279 280 282 283 284 282 281 281 282 282 283 284 285 285 286 287 290 290 289 288 288 288 288 288 288 288 288 287 285 285 285 284 283 281 279 276 273 271 270 268 268 269 270 270 271 271 271 269 265 262 261 261 262 262 260 257 255 253 251 251 251 252
278 281 285 287 284 282 282 283 281 279 278 279 279 278 280 282 284 284 284 286 289 290 290 290 291 291 290 289 289 289 289 289 290 291 291 290 290 289 289 288 286 285 283 281 278 276 274 272 271 270 269 269 268 269 268 266 264 263 262 263 263 262 260 257 254 252 252 252 252
280 284 286 288 287 287 289 290 287 284 281 281 282 282 282 284 285 285 285 287 290 291 290 289 291 291 292 291 292 292 292 293 293 294 294 293 292 291 290 288 287 286 284 283 281 279 277 275 273 270 268 266 266 266 265 263 262 261 261 261 262 262 262 260 258 256 255 254 253
281 284 284 284 286 289 291 291 290 289 287 286 286 286 287 287 285 286 288 290 290 290 290 292 293 293 294 294 294 295 295 296 295 295 294 294 292 291 289 288 286 285 283 282 280 279 276 274 272 271 269 266 265 265 264 262 260 260 259 260 260 260 261 261 259 258 257 256 255
283 286 288 288 289 291 292 292 291 291 291 290 290 290 291 290 290 291 292 293 293 294 295 296 296 295 295 296 297 297 297 297 297 295 294 293 292 291 289 287 286 284 282 281 279 277 275 273 271 270 269 267 266 264 263 262 261 260 260 260 260 260 260 261 260 259 258 256 256
285 287 288 290 292 293 294 294 295 294 294 293 293 293 293 294 295 296 296 296 296 297 298 299 298 298 298 299 299 298 298 297 296 295 293 292 291 290 288 286 285 283 282 281 279 276 274 272 270 269 268 267 266 264 263 261 260 260 260 260 260 260 260 260 259 257 256 254 254
288 288 289 291 294 295 295 296 296 296 296 295 295 296 297 297 298 299 300 298 298 298 300 301 301 300 300 300 299 298 298 297 295 294 293 291 289 288 287 285 284 283 282 281 279 276 274 271 270 268 267 266 265 264 263 262 261 260 259 259 260 261 261 260 259 257 254 252 252
292 292 293 295 296 296 296 295 296 297 297 296 297 298 299 298 300 301 301 301 300 301 301 302 302 302 302 301 300 299 298 296 294 293 292 290 289 288 287 286 285 284 283 281 280 278 275 272 270 268 267 266 266 265 265 263 262 261 260 260 261 262 262 262 261 259 256 254 253
294 295 295 296 296 296 295 294 295 296 297 297 298 298 298 299 301 301 302 302 303 303 303 302 302 302 302 301 300 299 297 296 294 292 291 290 289 288 287 286 285 284 283 281 280 279 277 274 271 269 267 266 266 266 265 263 262 260 259 258 258 259 260 260 260 258 257 255 254
296 296 296 297 296 294 294 294 294 295 296 296 297 298 298 300 301 302 302 302 302 302 302 301 301 301 301 300 299 298 296 294 293 291 290 288 288 287 286 285 284 283 282 281 279 278 277 275 273 271 269 268 267 267 266 264 261 258 255 254 254 254 254 255 255 254 254 253 252
296 297 298 297 296 295 294 295 295 295 296 296 297 298 299 300 301 301 301 302 302 302 301 301 301 300 299 297 296 295 294 293 291 290 288 287 286 285 284 283 283 281 280 279 278 277 276 276 275 274 273 272 271 270 269 267 265 261 258 255 253 252 251 250 250 249 248 248 249
296 297 297 296 296 296 295 295 295 296 296 297 299 299 300 300 301 301 302 302 303 302 301 300 300 299 298 296 295 294 292 291 290 289 287 286 285 284 283 282 282 281 280 279 279 279 279 278 278 278 277 276 275 274 272 270 268 266 263 260 257 254 252 250 249 248 246 245 246
295 295 295 296 296 296 295 295 295 296 297 298 299 300 300 301 302 302 302 302 302 302 300 299 298 297 297 296 295 293 292 290 288 287 286 285 284 283 282 282 283 283 282 282 281 282 281 281 281 280 278 277 275 273 271 269 267 265 262 260 257 254 252 251 250 249 248 247 246
295 295 297 298 296 295 295 295 297 298 299 299 299 300 301 302 302 302 301 301 301 300 299 297 297 296 295 295 293 292 291 289 287 285 284 283 283 283 283 284 285 286 286 285 284 283 282 281 279 277 275 273 271 269 266 264 263 260 257 254 252 251 250 249 248 248 247 247 246
297 297 298 298 297 297 297 298 299 300 300 300 301 302 303 303 302 302 301 300 300 299 298 296 296 295 294 293 291 290 289 287 285 283 282 281 283 284 286 288 288 288 288 287 285 283 281 279 276 273 271 268 266 264 262 260 260 258 255 252 250 248 247 246 245 245 245 245 245
299 299 300 300 299 299 299 300 301 301 302 302 303 304 303 303 302 302 301 300 298 297 297 296 296 295 293 292 289 287 286 285 285 285 285 285 286 288 290 291 290 289 288 286 284 283 281 279 276 273 270 267 265 262 259 257 255 254 253 251 249 247 246 244 243 242 242 242 243
300 300 300 300 300 300 300 301 302 302 303 303 303 303 302 302 302 301 301 300 299 298 297 296 295 294 293 291 288 287 286 287 289 291 292 293 293 293 292 291 290 288 286 284 284 284 283 283 281 278 275 272 269 265 261 257 254 252 251 249 248 247 246 244 242 240 239 239 240
301 301 300 299 300 301 302 302 302 302 302 303 303 302 302 301 300 300 300 299 299 298 298 297 296 295 295 293 292 292 293 294 296 297 297 297 295 293 291 290 288 287 285 285 286 286 286 286 285 284 281 278 275 271 267 262 257 254 252 251 249 246 244 242 240 238 237 237 237
302 301 301 300 302 302 302 302 302 303 303 303 303 302 301 300 300 299 299 299 299 299 299 299 297 297 298 297 298 298 299 299 299 298 297 296 294 293 291 289 288 287 286 286 288 288 289 289 289 288 287 284 280 276 273 268 263 259 256 255 252 248 244 241 239 237 236 235 234
301 301 302 303 304 303 303 303 304 304 303 303 301 300 299 299 299 299 300 301 301 302 302 301 300 300 301 301 300 299 299 298 297 297 296 294 293 291 290 289 288 287 287 289 291 292 292 293 292 292 291 289 285 280 275 270 265 261 257 256 255 252 249 244 242 239 236 234 232
299 301 303 304 304 304 305 305 304 303 302 301 300 299 300 300 301 303 304 305 306 306 305 304 304 303 302 300 299 298 297 296 296 296 296 295 293 292 290 289 288 288 289 292 293 294 294 294 294 293 293 292 289 283 276 270 265 260 256 255 257 257 255 252 247 243 238 234 231
300 302 303 304 304 305 305 305 303 302 300 299 299 300 302 305 307 309 310 310 309 307 306 305 303 301 299 297 297 297 296 296 296 296 296 295 294 292 291 290 290 290 292 294 294 295 295 295 294 294 293 293 290 286 279 274 270 265 259 255 258 260 259 256 250 244 239 234 231
301 302 303 304 304 304 304 303 301 300 298 298 300 303 307 311 313 314 313 312 309 306 304 302 299 297 295 294 294 295 295 296 297 296 295 294 294 293 292 291 290 290 292 294 294 294 295 295 295 295 295 295 293 291 287 283 278 272 265 256 257 258 259 256 250 244 238 233 230
301 303 304 304 304 304 303 302 300 299 298 299 303 308 312 315 314 313 312 309 307 305 303 300 298 296 295 295 295 296 297 298 297 297 296 295 294 293 293 292 290 291 292 294 295 295 296 297 297 298 298 299 299 298 295 291 286 279 270 261 260 260 260 256 249 241 234 228 227
302 303 304 304 304 303 302 301 299 299 301 305 310 314 316 316 314 311 309 307 305 303 301 299 299 298 299 300 300 300 299 299 298 297 296 295 294 293 292 291 291 291 293 295 296 297 297 298 299 299 301 303 304 304 302 298 293 286 276 267 265 263 260 253 246 239 232 228 227
304 305 305 304 303 302 302 300 301 304 308 312 315 316 316 314 312 309 307 306 303 301 300 299 299 299 300 301 301 300 300 300 299 298 297 296 294 293 292 291 290 292 295 296 297 298 299 299 300 301 303 306 307 307 305 300 295 288 282 278 273 265 253 241 236 235 234 231 230
305 305 305 304 303 302 302 302 306 311 314 317 317 316 314 311 308 306 305 304 302 301 300 299 300 300 300 300 299 298 299 299 299 298 297 296 295 294 293 292 291 292 295 297 298 299 300 300 301 303 305 308 308 307 303 295 288 282 277 274 266 253 239 232 230 231 231 231 231
304 304 304 303 302 303 304 307 312 316 317 317 316 314 311 308 306 304 303 303 302 302 301 302 303 303 302 301 299 298 297 297 297 296 297 297 297 296 295 293 292 293 294 296 298 300 301 303 303 305 306 307 307 305 300 290 281 273 268 262 251 241 233 230 231 232 233 233 234
302 302 302 302 303 305 309 314 316 318 317 315 314 311 309 306 304 303 302 304 304 304 305 305 305 303 301 300 299 297 296 295 295 296 297 298 298 297 296 294 292 292 294 297 299 302 304 305 305 306 307 307 307 305 300 290 279 268 261 254 247 240 235 234 235 236 237 237 236
302 301 301 301 305 310 314 317 318 317 315 312 310 308 307 305 304 304 305 307 308 308 307 305 303 301 300 299 298 297 296 296 297 298 298 299 298 297 295 294 293 293 295 298 302 304 305 306 306 307 308 309 308 306 301 295 283 270 260 251 246 242 239 238 237 237 238 238 242
300 300 301 304 309 314 317 317 316 314 311 309 308 307 306 306 305 306 308 310 309 307 305 302 300 299 298 299 299 299 299 298 298 299 299 298 297 296 296 296 295 296 298 300 303 304 306 307 308 310 311 311 309 305 301 298 289 277 265 253 247 243 240 238 237 237 239 241 248
299 300 304 309 314 316 316 315 312 310 308 306 306 306 306 306 306 307 309 309 306 303 301 298 297 297 297 300 300 301 300 300 299 299 298 298 297 298 299 299 298 298 298 300 301 303 305 308 311 313 314 312 309 304 300 300 295 286 274 259 249 244 240 237 234 234 236 239 248
299 304 309 314 316 316 314 311 309 307 305 305 305 305 306 307 307 307 307 305 302 300 298 296 296 296 298 300 301 301 301 300 300 299 298 298 298 299 300 300 299 297 297 297 300 303 308 312 314 315 315 313 310 307 303 300 299 294 285 270 254 244 239 237 235 232 230 229 234